Date,TemperatureHighF,TemperatureAvgF,TemperatureLowF,DewpointHighF,DewpointAvgF,DewpointLowF,HumidityHigh,HumidityAvg,HumidityLow,PressureMaxIn,PressureMinIn,WindSpeedMaxMPH,WindSpeedAvgMPH,GustSpeedMaxMPH,PrecipitationSumIn
2013-1-1,12.5,4.7,-5.5,7.9,-1.1,-8.8,86,77,59,30.14,29.97,17,2,17,0.00
2013-1-2,22.7,15.9,10.2,13.8,11.1,7.5,91,81,66,29.97,29.85,11,2,11,0.00
2013-1-3,20.3,14.4,5.0,17.6,11.5,2.5,100,88,84,30.07,29.90,19,4,19,0.00
2013-1-4,30.8,18.2,5.7,19.3,12.9,3.4,93,80,61,30.02,29.88,18,4,18,0.00
2013-1-5,34.9,21.0,9.2,23.0,16.0,6.6,93,82,59,30.02,29.70,18,4,18,0.01
2013-1-6,25.3,19.7,12.3,19.2,15.4,8.9,92,83,70,30.08,29.76,17,3,17,0.00
2013-1-7,35.2,23.6,12.0,26.4,18.1,8.4,93,80,65,30.03,29.77,32,5,32,0.00
2013-1-8,37.5,29.3,21.2,31.0,25.6,20.0,96,87,70,29.87,29.66,27,3,27,0.02
2013-1-9,36.6,31.1,25.5,28.8,24.1,20.0,89,75,57,30.23,29.70,31,7,31,0.00
2013-1-10,36.8,30.0,23.2,32.9,24.0,19.4,97,79,53,30.27,29.65,18,4,18,0.24
2013-1-11,41.7,36.3,33.1,41.7,36.1,32.6,100,99,97,29.66,29.30,13,3,14,0.01
2013-1-12,43.2,24.9,10.2,43.2,20.4,4.3,100,83,72,29.86,29.28,42,9,42,0.01
2013-1-13,10.5,7.6,3.1,6.8,2.8,-0.2,92,81,74,30.10,29.81,20,4,20,0.00
2013-1-14,14.9,7.6,-0.2,12.0,3.9,-2.9,93,85,76,30.28,30.09,25,2,25,0.00
2013-1-15,25.7,13.6,6.4,16.3,9.5,3.9,91,84,67,30.24,29.80,15,2,15,0.00
2013-1-16,32.0,24.1,15.9,28.7,17.8,3.0,92,77,53,29.99,29.54,24,6,24,0.00
2013-1-17,16.3,11.6,6.1,10.4,3.0,-3.5,92,68,55,30.25,29.99,19,4,19,0.00
2013-1-18,42.7,25.7,7.9,32.1,20.9,4.6,91,82,64,30.22,29.60,23,4,25,0.03
2013-1-19,40.7,29.9,7.4,32.9,24.4,-3.3,94,80,53,29.78,29.43,47,7,47,0.00
2013-1-24,9.1,7.9,0.0,1.0,-0.6,-1.9,69,66,65,30.20,30.12,6,3,12,0.00
2013-1-25,18.1,12.7,7.1,14.4,8.8,1.3,92,84,71,30.12,29.78,20,4,20,0.00
2013-1-26,20.9,11.9,-0.7,12.0,5.0,-3.9,88,74,59,30.25,30.10,13,2,13,0.00
2013-1-27,28.6,25.2,20.6,28.1,20.7,11.7,98,83,68,30.11,29.67,17,4,17,0.00
2013-1-28,32.6,30.0,28.6,31.8,29.5,28.1,99,98,96,29.78,29.55,17,2,17,0.09
2013-1-29,36.2,33.4,31.0,36.2,32.6,28.7,100,97,89,29.55,29.33,22,5,22,0.08
2013-1-30,31.0,20.0,9.4,28.7,17.6,4.9,96,90,80,29.49,29.29,26,9,26,0.00
2013-1-31,9.4,3.9,-3.8,5.3,-0.8,-8.8,98,81,72,30.03,29.49,25,6,25,0.00
2013-2-1,1.4,-5.0,-14.4,-2.5,-11.2,-18.8,87,74,59,30.18,30.00,18,3,18,0.00
2013-2-2,11.3,4.4,0.4,1.7,-1.5,-3.8,91,77,58,30.04,29.85,9,1,11,0.00
2013-2-3,16.7,9.0,3.6,13.0,3.3,0.6,90,78,62,29.89,29.80,22,4,22,0.00
2013-2-4,18.2,10.1,3.9,13.1,1.4,-2.7,92,69,43,29.90,29.74,10,2,10,0.00
2013-2-5,24.0,18.8,12.1,21.6,15.2,-2.0,94,86,75,29.95,29.55,18,4,18,0.00
2013-2-6,23.3,16.0,5.1,21.6,13.9,2.9,100,91,84,30.03,29.88,12,2,12,0.00
2013-2-7,26.6,24.4,22.0,25.8,23.3,20.0,97,96,93,30.05,29.86,16,5,16,0.00
2013-2-8,22.8,17.5,10.9,20.3,11.5,7.2,93,78,60,30.24,30.05,15,3,15,0.01
2013-2-9,25.7,19.3,11.0,22.7,17.0,8.9,95,91,83,30.20,29.88,15,3,15,0.00
2013-2-10,36.2,30.1,24.3,35.8,29.1,22.1,99,96,91,29.88,29.11,20,5,20,0.10
2013-2-11,33.9,27.1,20.5,33.7,25.4,16.9,100,93,84,29.83,29.11,27,8,27,0.02
2013-2-12,31.5,22.6,15.8,23.0,18.2,13.1,94,83,69,29.89,29.65,19,4,19,0.01
2013-2-13,35.7,27.9,19.7,28.8,23.7,18.5,96,85,67,29.65,29.42,14,2,14,0.00
2013-2-14,30.9,26.9,14.4,30.4,22.5,7.6,98,84,62,29.92,29.38,24,7,24,0.03
2013-2-15,17.7,11.3,6.7,7.4,3.5,0.6,79,70,58,30.09,29.92,18,3,18,0.00
2013-2-16,14.5,8.7,2.4,4.9,1.1,-2.1,89,71,55,30.07,30.02,13,1,13,0.00
2013-2-17,26.5,13.7,-0.3,13.7,4.3,-6.1,78,66,52,30.05,29.68,16,3,16,0.00
2013-2-18,37.4,26.7,17.3,30.9,22.5,14.1,93,84,71,29.68,29.34,22,5,22,0.01
2013-2-19,17.7,7.2,1.7,15.5,0.2,-5.8,91,73,60,30.10,29.42,26,8,26,0.00
2013-2-20,22.5,9.9,-1.0,9.9,2.4,-6.0,92,72,54,30.28,30.10,19,4,19,0.00
2013-2-21,21.0,11.9,2.2,18.4,6.7,-1.4,91,79,70,30.33,29.98,26,4,26,0.00
2013-2-22,29.0,23.4,20.3,27.0,21.9,18.0,96,94,88,29.98,29.66,25,5,25,0.01
2013-2-23,27.3,24.1,21.3,22.7,21.4,19.5,96,90,81,29.78,29.65,15,4,15,0.01
2013-2-24,35.7,26.0,15.8,25.6,21.3,14.0,97,83,62,29.95,29.78,10,2,10,0.01
2013-2-25,34.9,28.5,23.1,28.3,23.9,20.4,90,83,75,29.97,29.88,9,2,9,0.00
2013-2-26,33.8,30.0,24.4,27.2,24.5,20.8,89,80,75,29.91,29.62,25,7,25,0.00
2013-2-27,31.0,29.2,28.3,30.0,26.2,23.2,97,88,79,29.74,29.58,24,8,24,0.04
2013-2-28,29.6,27.0,21.2,27.5,22.2,14.5,95,82,73,30.04,29.74,22,7,22,0.00
2013-3-1,27.7,22.2,16.3,16.2,14.0,8.4,83,71,56,30.15,30.03,16,4,16,0.00
2013-3-2,27.4,17.6,6.3,12.1,8.6,3.8,90,69,46,30.17,30.03,17,3,17,0.00
2013-3-3,28.4,18.5,7.3,10.6,4.6,-2.2,82,57,33,30.03,29.91,12,3,12,0.00
2013-3-4,28.4,21.5,14.5,18.6,11.3,1.4,80,65,47,29.94,29.87,19,6,19,0.00
2013-3-5,25.7,23.5,21.5,24.5,21.0,17.0,100,90,76,30.04,29.84,18,5,18,0.00
2013-3-6,30.7,23.7,15.6,21.5,18.7,12.2,93,81,63,30.19,30.04,18,4,18,0.03
2013-3-7,31.6,21.9,11.5,18.2,14.1,8.9,93,73,53,30.27,30.18,12,3,12,0.01
2013-3-8,41.4,29.2,17.4,27.9,21.8,14.7,94,75,55,30.27,30.05,14,3,14,0.00
2013-3-9,36.5,32.6,28.6,35.0,30.1,24.1,99,90,81,30.05,29.59,18,4,18,0.21
2013-3-10,35.7,33.8,29.2,35.5,33.0,28.5,99,97,90,29.72,29.55,23,6,23,0.14
2013-3-11,29.0,26.8,23.7,28.4,26.1,22.6,98,97,95,29.62,29.46,17,5,20,0.00
2013-3-12,26.7,22.6,17.1,23.0,19.5,15.1,96,88,71,29.93,29.61,26,6,26,0.00
2013-3-13,30.8,21.0,12.4,15.1,9.8,4.4,91,64,37,30.16,29.93,18,4,19,0.01
2013-3-14,35.5,24.7,15.5,29.2,20.1,9.9,90,82,67,30.15,29.87,11,2,11,0.04
2013-3-15,31.6,28.3,25.8,29.8,26.8,24.1,97,94,89,29.87,29.66,12,2,12,0.12
2013-3-16,28.3,21.4,15.4,27.6,16.6,8.4,97,82,60,30.01,29.68,21,4,22,0.06
2013-3-17,26.7,16.4,5.3,13.9,7.8,0.2,80,69,50,30.13,29.85,17,5,17,0.00
2013-3-18,28.9,20.2,13.6,27.4,17.4,10.0,95,89,80,29.86,29.41,30,6,30,0.00
2013-3-19,23.3,15.2,8.0,10.2,6.2,1.0,87,68,49,29.92,29.52,32,12,32,0.00
2013-3-20,17.1,9.9,2.0,5.8,0.0,-5.5,78,64,54,29.96,29.91,25,7,25,0.00
2013-3-21,26.0,16.7,1.7,12.6,7.4,-1.3,88,67,52,29.96,29.88,15,4,15,0.00
2013-3-22,35.1,22.8,9.9,17.4,11.7,4.9,85,64,45,29.93,29.87,13,3,13,0.04
2013-3-23,35.7,27.7,16.4,22.9,18.0,10.8,89,67,56,29.98,29.90,11,2,11,0.04
2013-3-24,31.9,29.3,26.2,24.8,22.2,19.6,82,75,66,29.94,29.73,22,5,22,0.00
2013-3-25,34.1,26.8,17.8,24.7,19.8,14.9,91,75,60,30.01,29.78,22,7,24,0.01
2013-3-26,36.6,30.2,21.4,24.5,20.6,17.0,85,68,49,30.11,30.00,16,3,17,0.00
2013-3-27,41.5,34.4,29.4,23.4,20.2,17.0,75,57,40,30.16,30.11,15,2,15,0.00
2013-3-28,45.1,35.1,24.3,23.1,18.6,16.8,74,52,35,30.19,30.10,10,2,11,0.00
2013-3-29,48.5,37.1,29.7,23.4,19.9,17.0,61,50,37,30.16,29.99,10,1,14,0.00
2013-3-30,42.8,38.7,35.0,41.0,33.6,22.2,99,83,50,29.99,29.64,16,3,17,0.32
2013-3-31,37.9,32.6,26.7,34.5,26.4,13.4,99,81,43,29.81,29.56,28,5,28,0.02
2013-4-1,30.1,24.8,18.9,15.1,12.3,8.6,77,59,44,30.03,29.80,26,7,26,0.00
2013-4-2,33.9,25.7,15.7,16.4,13.3,10.1,79,60,41,30.18,30.03,20,4,20,0.00
2013-4-3,43.9,31.7,19.7,19.0,14.4,10.2,76,51,27,30.31,30.02,19,2,19,0.00
2013-4-4,49.0,39.1,31.2,34.4,25.7,18.7,71,59,43,30.02,29.82,22,5,23,0.00
2013-4-5,40.2,34.0,26.5,31.0,21.1,15.3,96,60,39,30.08,29.89,14,3,14,0.00
2013-4-6,48.6,37.1,29.4,44.9,32.9,26.0,98,86,60,29.89,29.32,26,6,26,0.34
2013-4-7,43.7,37.0,32.9,35.4,33.0,31.1,96,86,70,29.79,29.47,20,4,20,0.00
2013-4-8,44.6,38.3,34.4,37.8,34.6,32.0,93,87,76,29.85,29.56,19,4,19,0.04
2013-4-9,38.4,36.1,32.3,37.1,34.2,28.6,98,93,75,29.95,29.79,26,6,26,0.83
2013-4-10,37.2,32.8,27.6,32.0,28.2,21.9,100,84,59,29.98,29.75,29,4,29,0.45
2013-4-11,35.6,31.4,28.1,31.4,27.2,20.5,100,85,56,29.76,29.49,34,11,34,0.01
2013-4-12,33.5,30.0,27.5,32.0,28.6,26.8,100,94,87,29.61,29.43,14,4,17,0.11
2013-4-13,34.4,29.5,25.2,29.2,25.9,23.2,95,86,70,29.84,29.61,19,4,19,0.04
2013-4-14,34.2,29.7,25.1,33.8,28.0,22.9,99,93,80,29.84,29.45,25,4,25,0.35
2013-4-15,42.2,37.1,32.2,38.4,31.2,26.2,100,81,59,29.78,29.44,35,7,35,0.08
2013-4-16,44.4,36.5,30.5,30.7,28.4,26.1,87,73,54,30.17,29.77,16,4,16,0.00
2013-4-17,38.6,35.0,31.9,34.5,30.3,27.0,97,83,73,30.17,29.71,27,8,27,0.12
2013-4-18,37.2,35.7,32.0,36.7,35.0,31.4,99,98,94,29.71,29.12,33,5,33,0.48
2013-4-19,33.6,30.1,26.6,31.4,26.9,21.3,99,88,63,29.76,29.09,33,6,33,0.01
2013-4-20,41.1,30.7,20.7,21.7,15.9,7.8,90,58,27,30.20,29.76,17,3,17,0.00
2013-4-21,45.9,35.9,28.9,40.5,29.5,16.7,97,79,54,30.26,29.97,19,4,19,0.14
2013-4-22,45.0,42.6,39.7,44.7,42.0,39.4,99,98,86,30.00,29.77,15,2,15,0.31
2013-4-23,39.8,35.2,31.4,39.4,30.2,26.0,99,83,61,29.88,29.72,24,4,24,0.09
2013-4-24,48.9,37.3,25.9,34.8,26.0,20.8,96,66,42,29.88,29.72,30,5,30,0.11
2013-4-25,42.4,34.8,32.1,33.2,32.0,28.8,98,90,60,30.04,29.77,20,5,20,0.03
2013-5-18,60.9,56.4,46.4,56.7,52.7,27.8,91,88,48,29.98,29.77,15,1,31,0.08
2013-5-19,81.6,67.7,54.4,67.1,60.6,52.2,95,79,60,29.97,29.69,25,2,25,0.00
2013-5-20,85.5,76.0,65.8,68.2,61.7,56.8,95,64,39,29.73,29.64,28,6,32,0.07
2013-5-21,76.3,67.0,62.7,65.8,61.9,57.3,97,84,59,29.68,29.59,21,6,21,0.09
2013-5-22,66.8,63.9,54.9,64.7,60.7,54.1,99,90,73,29.64,29.59,11,1,11,0.17